Home   Weather   Bytom   Past weeks

Flag for Poland Past Weather in Bytom, Poland — Yesterday and Last 2 Weeks

Now
59 °F

Sunny.


Feels Like: 57 °F
Forecast: 56 / 71 °F
Wind: 10 mph from Southwest

Location: Katowice Airport

Current Time: Jul 27, 2017 at 6:59:05 am

Latest Report: Jul 27, 2017 at 6:30 am


Visibility: 10 mi

Pressure: 29.68 "Hg

Humidity: 82%

Dew Point: 54 °F

Location of BytomLocation

Past Weather in Bytom — Graph

°F

Bytom Temperature Yesterday

Maximum temperature yesterday: 70 °F (at 4:30 pm)
Minimum temperature yesterday: 54 °F (at 3:30 am)
Average temperature yesterday: 62 °F

High & Low Weather Summary for the Past Weeks

 TemperatureHumidityPressure
High88 °F (Jul 20, 2:30 pm)100% (Jul 14, 3:00 am)30.21 "Hg (Jul 14, 3:00 am)
Low39 °F (Jul 14, 5:00 am)29% (Jul 19, 5:00 pm)29.53 "Hg (Jul 25, 5:00 am)
Average65 °F70%29.94 "Hg
* Reported Jul 12 5:00 am — Jul 27 5:30 am, Bytom. Weather by CustomWeather, © 2017

Note: Actual official high and low records may vary slightly from our data, if they occured in-between our weather recording intervals... More about our weather records

Advertising

Bytom Weather History for the Previous 24 Hours

Scroll right to see more
 ConditionsComfort  
Time TempWeatherWind HumidityBarometerVisibility
5:30 am
Thu, Jul 27
57 °FPassing clouds.6 mph82%29.68 "HgN/A
5:00 am57 °FClear.6 mph82%29.68 "Hg10 mi
4:30 am57 °FPassing clouds.6 mph82%29.68 "HgN/A
4:00 am57 °FPassing clouds.7 mph82%29.68 "HgN/A
3:30 am57 °FPassing clouds.5 mph82%29.68 "HgN/A
3:00 am59 °FClear.8 mph77%29.68 "Hg10 mi
2:30 am59 °FClear.9 mph77%29.68 "Hg10 mi
2:00 am59 °FClear.9 mph77%29.68 "Hg10 mi
1:30 am59 °FPassing clouds.9 mph77%29.68 "HgN/A
1:00 am59 °FPassing clouds.7 mph77%29.68 "HgN/A
12:30 am61 °FClear.7 mph72%29.65 "Hg10 mi
12:00 am61 °FClear.7 mph72%29.65 "Hg10 mi
11:30 pm
Wed, Jul 26
61 °FClear.7 mph72%29.65 "Hg10 mi
11:00 pm61 °FPassing clouds.7 mph68%29.65 "HgN/A
10:30 pm61 °FClear.6 mph68%29.65 "Hg10 mi
10:00 pm63 °FClear.6 mph68%29.65 "Hg10 mi
9:30 pm64 °FClear.6 mph60%29.65 "Hg10 mi
9:00 pm64 °FClear.7 mph60%29.65 "Hg10 mi
8:30 pm66 °FSunny.8 mph56%29.65 "Hg10 mi
8:00 pm66 °FSunny.6 mph52%29.65 "Hg10 mi
7:30 pm66 °FSunny.13 mph56%29.62 "Hg10 mi
7:00 pm68 °FSunny.12 mph49%29.62 "Hg10 mi
6:30 pm68 °FPassing clouds.13 mph53%29.62 "HgN/A
6:00 pm68 °FSunny.16 mph49%29.62 "Hg10 mi
5:30 pm68 °FPassing clouds.18 mph53%29.62 "HgN/A
5:00 pm70 °FPassing clouds.18 mph46%29.62 "HgN/A
4:30 pm70 °FPassing clouds.16 mph50%29.62 "HgN/A
4:00 pm68 °FScattered clouds.20 mph53%29.62 "HgN/A
3:30 pm66 °FPassing clouds.13 mph56%29.62 "HgN/A
3:00 pm66 °FBroken clouds.14 mph56%29.62 "HgN/A
2:30 pm66 °FScattered clouds.14 mph52%29.62 "HgN/A
2:00 pm66 °FPartly sunny.14 mph52%29.62 "HgN/A
1:30 pm66 °FPassing clouds.13 mph56%29.62 "HgN/A
1:00 pm66 °FPartly sunny.16 mph56%29.62 "HgN/A
12:30 pm66 °FPartly sunny.16 mph56%29.59 "HgN/A
12:00 pm64 °FScattered clouds.15 mph60%29.59 "HgN/A
11:30 am64 °FBroken clouds.13 mph60%29.59 "HgN/A
11:00 am63 °FBroken clouds.16 mph64%29.59 "HgN/A
10:30 am64 °FPartly sunny.15 mph60%29.59 "HgN/A
10:00 am63 °FBroken clouds.16 mph64%29.59 "HgN/A
9:30 am61 °FPartly sunny.17 mph63%29.59 "HgN/A
9:00 am61 °FBroken clouds.16 mph68%29.59 "HgN/A
8:30 am61 °FPassing clouds.16 mph68%29.59 "HgN/A
8:00 am59 °FPassing clouds.16 mph72%29.59 "HgN/A
7:30 am59 °FSunny.14 mph72%29.59 "Hg10 mi
7:00 am57 °FSunny.13 mph77%29.59 "Hg10 mi
6:30 am55 °FSunny.12 mph82%29.59 "Hg10 mi
6:00 am54 °FSunny.9 mph88%29.59 "Hg10 mi
Weather by CustomWeather, © 2017

See weather overviewHow to use our weather pages